Location: Baller�as
(41.9020°N, 0.1554°W)
Time: 11:23:00
(UTC+00:00)

IRS-1A Rocket - Pass Details

Date: 10 August 2020
Orbit: 852 x 930 km, 99.2° (Epoch: 21 September)

Event Time Altitude Azimuth Distance (km) Brightness Sun altitude
Rises 19:44:51 0° 166° (SSE) 3,449 7.0 -7.2°
Reaches altitude 10° 19:47:12 10° 167° (SSE) 2,525 6.3 -7.6°
Maximum altitude 19:52:50 82° 255° (WSW) 905 4.4 -8.5°
Drops below altitude 10° 19:58:38 10° 344° (NNW) 2,595 7.5 -9.4°
Sets 20:01:05 0° 345° (NNW) 3,551 8.2 -9.8°
